Regional Weather Roundup
Issued by NWS

Home | Current Version | Previous Version | Text Only | Print | Product List | Glossary On
Versions: 1 2 3 4 5 6 7 8 9 10 11 12 13 14 15 16 17 18 19 20 21 22 23 24 25 26 27 28 29 30 31 32 33 34 35 36 37 38 39 40 41 42 43 44 45 46 47 48 49 50
000
ASUS43 KLSX 060059
RWRMO

WEATHER SUMMARY FOR MISSOURI
NATIONAL WEATHER SERVICE SPRINGFIELD MO
700 PM CST THU MAR 05 2015

NOTE: "FAIR" INDICATES FEW OR NO CLOUDS BELOW 12,000 FEET WITH NO
       SIGNIFICANT WEATHER AND/OR OBSTRUCTIONS TO VISIBILITY.
       CURRENT SKY AND/OR WEATHER CONDITIONS ARE NOT AVAILABLE FOR
       CHILLICOTHE AND FARMINGTON.

MOZ001>031-035>038-043-044-053-054-060200-
...NORTHERN AND WESTERN MISSOURI...

CITY           SKY/WX    TMP DP  RH WIND       PRES   REMARKS
KANSAS CTY INT PTCLDY    27   5  39 SE7       30.48S WCI  19
KANSAS C DTWN  CLEAR     30   5  34 CALM      30.50S
LEE`S SUMMIT   CLEAR     29   5  36 SE5       30.50R WCI  24
ST JOSEPH      CLEAR     26   7  44 SE7       30.49S WCI  18
CHILLICOTHE      N/A     24   7  48 SE3       30.54R
KIRKSVILLE     CLEAR     20   6  55 E5        30.52R WCI  13

$$
MOZ066>068-077>081-088>096-101>105-060200-
...SOUTHWEST MISSOURI...

CITY           SKY/WX    TMP DP  RH WIND       PRES   REMARKS
SPRINGFIELD    CLEAR     29  10  45 W3        30.50R
JOPLIN         CLEAR     30  13  49 E3        30.51F

$$
MOZ032>034-039>042-045>050-055>058-069>072-060200-
...CENTRAL MISSOURI...

CITY           SKY/WX    TMP DP  RH WIND       PRES   REMARKS
COLUMBIA       CLEAR     24   7  48 W5        30.54R WCI  18
JEFFERSON CITY CLEAR     26   8  46 CALM      30.56S
ROLLA          CLEAR     23  10  57 CALM      30.50R
SEDALIA        CLEAR     26  10  50 CALM      30.54R
OSAGE BEACH    CLEAR     27   9  46 NE5       30.53S WCI  21

$$
MOZ051-052-059>065-060200-
...EAST CENTRAL MISSOURI...

CITY           SKY/WX    TMP DP  RH WIND       PRES   REMARKS
ST LOUIS INTL  CLEAR     22   4  46 NE5       30.58R WCI  16
SPIRIT OF STL  CLEAR     22   5  48 N5        30.58R WCI  16
ST CHARLES     CLEAR     17   6  62 CALM      30.59R

$$
MOZ072>076-082>087-097>100-106>115-060200-
...SOUTH CENTRAL AND SOUTHEAST MISSOURI...

CITY           SKY/WX    TMP DP  RH WIND       PRES   REMARKS
CAPE GIRARDEAU PTCLDY    19   8  62 N7        30.59R WCI  10
FARMINGTON     CLEAR     23   9  54 N6        30.56R WCI  16
POPLAR BLUFF   CLEAR     22   9  57 SE3       30.57R
WEST PLAINS    CLEAR     23   5  46 CALM      30.51R

$$


USA.gov is the U.S. government's official web portal to all federal, state and local government web resources and services.